THORAD DELTA 1 DEB, 8165

Orbit data source: Space-Track

THORAD DELTA 1 DEB, 8165 is space debris in SSO originally from a launch on Fri, 15 Nov 1974 UTC launched from the Air Force Western Test Range (AFWTR). Debris objects in space refer to the collection of defunct objects orbiting the Earth. Examples of debris include non-operational satellites, rocket bodies, and fragments generated from explosions, collisions, or faulty payload assembly.

Loading next visibility...
THORAD DELTA 1 DEB details
Identifier
8165, 1974-089AF
Orbit
SSO
Last TLE update18 hours ago
Origin
Flag of USGSFC (US)
ManufacturerUnknown
MissionSpacecraft
Bus & MotorUnknown
MassUnknown
Launch date (UTC)
1974-11-15 (50 years ago)
Launch vehicleUnknown
Launch site
Air Force Western Test Range (AFWTR)
Object type
Payload
Rocket body
Debris
Shape & HBRUnknown
Radar Cross SectionSmall (<0.1 m²)

Expand to show TLE details & history

TLE from 18 hours ago
0 THORAD DELTA 1 DEB
1 08165U 74089AF  25023.80843255  .00000033  00000-0  50110-3 0  9991
2 08165 101.6526 334.0040 0018052 137.8626 294.0931 12.50126391289115
Epoch: 2025-01-23T19:24Z
Definitive object data (Epoch: 2025-01-23T19:24:08.572Z)
Latitude68.54633°
Longitude-111.89275°
Altitude1,469.909 km
Speed7.137 km/s
True Right ascension20h 10m 05s
True Declination68° 26' 23"
Sunlit
Object was in daylight at TLE epoch
Visualization TLE readout
Latitude-28.34836°
Longitude93.96283°
Altitude1,469.932 km
Speed7.129 km/s
Apparent Right ascension07h 10m 11s
Apparent Declination-47° 31' 58"
Sunlit
Object is in full shadow
Visualization observer readout
Local Sidereal Time14:41:01
Azimuth237.386° WSW
Elevation-42.319°
Doppler factor1
Orbital elements
Apogee altitude1,475.659 km
Perigee altitude1,447.355 km
Semi-major axis7,839.644 km
Eccentricity0.0018052
Inclination101.6526°
RAAN334.004°
Arg. of periapsis137.8626°
True anomaly293.90409°
Mean anomaly294.0931°
Eccentric anomaly293.99861°
Mean motion3.12679 °/min
BSTAR0.0005011
Orbital period115.13 mins
Loading maneuver chart data...

THORAD DELTA 1 DEB Visibility forecast

Observer location: undefined°, undefined

Span
Click to sort rows by Start time (UTC) header in descending order
Start Az.
Max El. time (UTC)
Max El. Az.
Max El.
End time (UTC)
End Az.
9 mins2025-01-24 18:16:00.789Z86.828° E2025-01-24 18:21:00.789Z48.096° ENE17.538°2025-01-24 18:25:00.789Z16.688° NNE
14 mins2025-01-24 20:06:00.789Z153.651° SSE2025-01-24 20:13:00.789Z35.1° NE44.293°2025-01-24 20:20:00.789Z345.591° N
10 mins2025-01-24 22:02:00.789Z230.497° WSW2025-01-24 22:06:00.789Z263.501° W19.686°2025-01-24 22:12:00.789Z311.466° NW
11 mins2025-01-25 08:11:00.789Z48.085° ENE2025-01-25 08:16:00.789Z92.699° ESE24.531°2025-01-25 08:22:00.789Z145.495° SSE
14 mins2025-01-25 10:03:00.789Z9.344° NNE2025-01-25 10:10:00.789Z284.58° WNW41.984°2025-01-25 10:17:00.789Z215.448° SW
6 mins2025-01-25 11:59:00.789Z330.77° NNW2025-01-25 12:01:00.789Z315.275° NNW13.972°2025-01-25 12:05:00.789Z285.42° WNW
|